Starlink 11417

operational
NORAD ID: 62983 Int'l Des: 2025-031 Owner: SPXS Country: US Constellation: starlink
LEOCIRCULAR

Über Starlink 11417

Beschreibung wird geladen...

Live-Position

3D-Globus wird geladen...

Nächste Überflüge

Höhenverlauf

Altitude vs Time

uPlot chart will show altitude changes over time

Zweizeiliger Elementsatz

1 62983U 25031C 25305.98769306 .00297443 00000-0 22360-2 0 9996
2 62983 42.9994 51.6145 0001360 280.0951 79.9763 15.70877712 42657
Epoch: 1. Nov. 2025 • Age: 33 hours

Aktueller Status

Höhe 354.2 km
Geschwindigkeit 7.70 km/s
Subsatellitenpunkt 21.23°N, 30.55°E
Startdatum 11. Feb. 2025
Alter 0.7 years
Typ internet

Technische Details

Klassifizierung Payload
Masse 960.00 kg
Trockenmasse 910.00 kg
Gesamtmasse 960.00 kg
Länge 0.30 m
Durchmesser 4.10 m
Spannweite 29.00 m
Form Box + pan
Hersteller SPXS
Bus-Typ Starlink V2MD
Phasenstatus In Orbit
Besitzer/Staat SPXS/US

Große Konstellationen

Loading constellations...